Weather History for Montague, CA

Change the Weather History Date:

Tuesday, March 4, 2014

  Actual Average Record
Temperature  
Mean Temperature 47 °F 42 °F  
Max Temperature 57 °F 55 °F 71 °F (1986)
Min Temperature 36 °F 29 °F 17 °F (2008)
Degree Days  
Heating Degree Days 18 23  
Month to date heating degree days 62 92  
Since 1 July heating degree days 4110 3969  
Cooling Degree Days 0 0  
Month to date cooling degree days 0 0  
Year to date cooling degree days 0 0  
Moisture  
Dew Point 41 °F    
Average Humidity 84    
Maximum Humidity 100    
Minimum Humidity 57    
Precipitation  
Precipitation 0.00 in 0.08 in 0.38 in (1991)
Month to date precipitation 0.86 0.39  
Year to date precipitation 3.30 4.60  
Sea Level Pressure  
Sea Level Pressure 30.11 in    
Wind  
Wind Speed 3 mph (SSW)    
Max Wind Speed 13 mph    
Max Gust Speed 15 mph    
Visibility 8 miles    
Events Fog    
T = Trace of Precipitation, MM = Missing Value Source: NWS Daily Summary

Daily Weather History Graph

Daily Weather History Graph

Search for Another Location

Airport:

Trip Planner

Search our weather history database for the weather conditions in past years. The results will help you decide how hot, cold, wet, or windy it might be!

Date:

Astronomy

Mar. 04, 2014 Rise Set
Actual Time 6:39 AM PST 6:03 PM PST
Civil Twilight 6:11 AM PST 6:31 PM PST
Nautical Twilight 5:39 AM PST 7:04 PM PST
Astronomical Twilight 5:07 AM PST 7:36 PM PST
Moon 8:25 AM PST (3/4) 10:21 PM PST (3/4)
Length of Visible Light 12h 19m
Length of Day
11h 24m
Waxing Crescent, 15% of the Moon is Illuminated
Mar 4
Waxing Crescent
Mar 8
First Quarter
Mar 16
Full
Mar 23
Last Quarter
Mar 30
New

Hourly Weather History & Observations

Time (PST) Temp. Windchill Dew Point Humidity Pressure Visibility Wind Dir Wind Speed Gust Speed Precip Events Conditions
12:53 AM 44.1 °F - 41.0 °F 89% 30.09 in 10.0 mi Calm Calm - N/A   Overcast
1:53 AM 41.0 °F 37.1 °F 39.0 °F 93% 30.09 in 10.0 mi SW 5.8 mph - N/A   Clear
2:53 AM 39.9 °F 37.8 °F 37.9 °F 93% 30.11 in 10.0 mi East 3.5 mph - N/A   Mostly Cloudy
3:53 AM 37.0 °F 33.3 °F 36.0 °F 96% 30.12 in 10.0 mi North 4.6 mph - N/A   Clear
4:53 AM 36.0 °F 33.3 °F 35.1 °F 97% 30.14 in 10.0 mi SSE 3.5 mph - N/A   Overcast
5:33 AM 39.0 °F - 37.9 °F 96% 30.10 in 10.0 mi Calm Calm - N/A   Overcast
5:53 AM 39.9 °F - 39.0 °F 97% 30.14 in 9.0 mi Calm Calm - N/A   Overcast
6:53 AM 41.0 °F - 39.0 °F 93% 30.15 in 10.0 mi Calm Calm - N/A   Overcast
7:48 AM 39.2 °F - 39.2 °F 100% 30.13 in 9.0 mi Calm Calm - N/A   Mostly Cloudy
7:51 AM 39.2 °F 37.0 °F 39.2 °F 100% 30.13 in 2.0 mi WSW 3.5 mph - N/A   Mostly Cloudy
7:53 AM 39.9 °F 37.8 °F 39.0 °F 97% 30.18 in 0.5 mi WSW 3.5 mph - N/A Fog Fog
7:57 AM 39.0 °F - 39.0 °F 100% 30.13 in 0.2 mi Calm Calm - N/A Fog Fog
8:51 AM 41.0 °F - 39.2 °F 93% 30.14 in 1.0 mi Calm Calm - N/A   Mist
8:53 AM 42.1 °F - 41.0 °F 96% 30.18 in 1.8 mi Calm Calm - N/A   Mostly Cloudy
8:55 AM 42.1 °F - 41.0 °F 96% 30.14 in 3.0 mi Calm Calm - N/A   Mostly Cloudy
9:10 AM 42.1 °F 40.2 °F 41.0 °F 96% 30.14 in 10.0 mi WSW 3.5 mph - N/A   Partly Cloudy
9:53 AM 45.0 °F - 42.1 °F 90% 30.17 in 10.0 mi Calm Calm - N/A   Clear
10:53 AM 48.9 °F - 43.0 °F 80% 30.15 in 10.0 mi Calm Calm - N/A   Scattered Clouds
11:53 AM 53.1 °F - 43.0 °F 69% 30.14 in 10.0 mi NE 5.8 mph - N/A   Clear
12:53 PM 55.0 °F - 43.0 °F 64% 30.11 in 10.0 mi Calm Calm - N/A   Clear
1:53 PM 55.9 °F - 44.1 °F 64% 30.09 in 10.0 mi SSW 4.6 mph - N/A   Clear
2:53 PM 57.0 °F - 42.1 °F 57% 30.07 in 10.0 mi SSW 6.9 mph - N/A   Clear
3:53 PM 57.0 °F - 42.1 °F 57% 30.07 in 10.0 mi South 8.1 mph - N/A   Clear
4:53 PM 55.0 °F - 43.0 °F 64% 30.08 in 10.0 mi South 11.5 mph - N/A   Clear
5:53 PM 52.0 °F - 43.0 °F 71% 30.06 in 10.0 mi SSE 5.8 mph - N/A   Clear
6:53 PM 51.1 °F - 42.1 °F 71% 30.07 in 10.0 mi Calm Calm - N/A   Partly Cloudy
7:53 PM 50.0 °F - 43.0 °F 77% 30.08 in 10.0 mi Calm Calm - N/A   Overcast
8:53 PM 48.9 °F - 43.0 °F 80% 30.06 in 10.0 mi SW 4.6 mph - N/A   Partly Cloudy
9:53 PM 48.0 °F - 41.0 °F 77% 30.06 in 10.0 mi WNW 3.5 mph - N/A   Mostly Cloudy
10:53 PM 48.0 °F - 43.0 °F 83% 30.05 in 10.0 mi Calm Calm - N/A   Overcast
11:53 PM 48.0 °F - 43.0 °F 83% 30.03 in 10.0 mi Calm Calm - N/A   Overcast